Weather History for Liberia, Costa Rica

Change the Weather History Date:

Saturday, April 28, 2012

  Actual Average Record
Temperature  
Mean Temperature 83 °F -  
Max Temperature 95 °F 90 °F 98 °F (1998)
Min Temperature 71 °F 76 °F 69 °F (2008)
Cooling Degree Days 18    
Growing Degree Days 33 (Base 50)    
Moisture  
Dew Point 70 °F    
Average Humidity 63    
Maximum Humidity 94    
Minimum Humidity 36    
Precipitation  
Precipitation 0.00 in - - ()
Sea Level Pressure  
Sea Level Pressure 29.80 in    
Wind  
Wind Speed 5 mph ()    
Max Wind Speed 12 mph    
Max Gust Speed -    
Visibility 7.5 miles    
Events Rain    
Averages and records for this station are not official NWS values.
T = Trace of Precipitation, MM = Missing Value Source: Averaged Metar Reports

Daily Weather History Graph

Daily Weather History Graph

Search for Another Location

Airport:

Trip Planner

Search our weather history database for the weather conditions in past years. The results will help you decide how hot, cold, wet, or windy it might be!

Date:

Astronomy

Apr. 28, 2012 Rise Set
Actual Time 5:25 AM CST 5:54 PM CST
Civil Twilight 5:03 AM CST 6:15 PM CST
Nautical Twilight 4:37 AM CST 6:41 PM CST
Astronomical Twilight 4:12 AM CST 7:07 PM CST
Moon 11:08 AM CST (4/28) 11:55 PM CST (4/28)
Length of Visible Light 13h 12m
Length of Day
12h 29m
Waxing Crescent, 43% of the Moon is Illuminated
Apr 28
Waxing Crescent
Apr 29
First Quarter
May 5
Full
May 12
Last Quarter
May 20
New

Hourly Weather History & Observations

Time (CST) Temp. Heat Index Dew Point Humidity Pressure Visibility Wind Dir Wind Speed Gust Speed Precip Events Conditions
6:00 AM 72 °F - 69 °F 88% 29.77 in 12 mi NNE 4.6 mph - -   Scattered Clouds
6:00 AM 71.6 °F - 69.8 °F 94% 29.81 in 6.2 mi NNE 4.6 mph - N/A   Mostly Cloudy
7:00 AM 75.2 °F - 69.8 °F 83% 29.83 in 6.2 mi NNE 3.5 mph - N/A   Mostly Cloudy
8:00 AM 82.4 °F 86.3 °F 69.8 °F 66% 29.85 in 6.2 mi East 3.5 mph - N/A   Scattered Clouds
9:00 AM 82 °F - 70 °F 59% 29.82 in 12 mi South 5.8 mph - -   Overcast
9:00 AM 82.4 °F 86.3 °F 69.8 °F 66% 29.87 in 6.2 mi South 5.8 mph - N/A   Mostly Cloudy
10:00 AM 87.8 °F 91.4 °F 68.0 °F 52% 29.86 in 6.2 mi SSW 3.5 mph - N/A   Mostly Cloudy
11:00 AM 89.6 °F 93.4 °F 68.0 °F 49% 29.84 in 6.2 mi NE 3.5 mph - N/A   Mostly Cloudy
12:00 PM 92 °F - 68 °F 36% 29.81 in 12 mi South 5.8 mph - -   Partly Cloudy
12:00 PM 91.4 °F 95.4 °F 68.0 °F 46% 29.81 in 6.2 mi South 5.8 mph - N/A   Mostly Cloudy
1:00 PM 93.2 °F 96.2 °F 66.2 °F 41% 29.79 in 6.2 mi South 6.9 mph - N/A   Mostly Cloudy
2:00 PM 93.2 °F 98.8 °F 69.8 °F 46% 29.76 in 6.2 mi West 6.9 mph - N/A   Mostly Cloudy
3:00 PM 90 °F - 69 °F 41% 29.73 in 12 mi West 11.5 mph - -   Overcast
3:00 PM 89.6 °F 94.7 °F 69.8 °F 52% 29.75 in 6.2 mi West 11.5 mph - N/A   Scattered Clouds
4:00 PM 87.8 °F 92.6 °F 69.8 °F 55% 29.75 in 6.2 mi West 10.4 mph - N/A   Mostly Cloudy
5:00 PM 84.2 °F 90.9 °F 73.4 °F 70% 29.77 in 6.2 mi SW 10.4 mph - N/A   Scattered Clouds
6:00 PM 78 °F - 72 °F 75% 29.75 in 9 mi East 11.5 mph - - Rain Light Rain
6:00 PM 78.8 °F - 71.6 °F 78% 29.81 in 6.2 mi East 11.5 mph - N/A Rain Light Rain
6:01 PM 78.8 °F - 71.6 °F 78% 29.82 in 6.2 mi ENE 3.5 mph - N/A   Scattered Clouds
8:00 PM 77.0 °F - 73.4 °F 89% 29.83 in 6.2 mi NE 3.5 mph - N/A   Mostly Cloudy